Weather History for Macapa, Brazil

Change the Weather History Date:

Sunday, December 9, 2012

  Actual Average Record
Temperature  
Mean Temperature 84 °F -  
Max Temperature 92 °F 87 °F 95 °F (2010)
Min Temperature 77 °F 74 °F 73 °F (2002)
Cooling Degree Days 20    
Growing Degree Days 34 (Base 50)    
Moisture  
Dew Point 75 °F    
Average Humidity 70    
Maximum Humidity 94    
Minimum Humidity 44    
Precipitation  
Precipitation 0.00 in - - ()
Sea Level Pressure  
Sea Level Pressure 29.84 in    
Wind  
Wind Speed 6 mph ()    
Max Wind Speed 13 mph    
Max Gust Speed -    
Visibility 5.5 miles    
Events      
Averages and records for this station are not official NWS values.
T = Trace of Precipitation, MM = Missing Value Source: Averaged Metar Reports

Daily Weather History Graph

Daily Weather History Graph

Search for Another Location

Airport:

Trip Planner

Search our weather history database for the weather conditions in past years. The results will help you decide how hot, cold, wet, or windy it might be!

Date:

Astronomy

Dec. 09, 2012 Rise Set
Actual Time 6:13 AM BRT 6:20 PM BRT
Civil Twilight 5:50 AM BRT 6:42 PM BRT
Nautical Twilight 5:24 AM BRT 7:09 PM BRT
Astronomical Twilight 4:58 AM BRT 7:35 PM BRT
Moon 2:21 AM BRT (12/9) 2:47 PM BRT (12/9)
Length of Visible Light 12h 52m
Length of Day
12h 07m
Waning Crescent, 19% of the Moon is Illuminated
Dec 9
Waning Crescent
Dec 13
New
Dec 20
First Quarter
Dec 28
Full
Jan 5
Last Quarter

Hourly Weather History & Observations

Time (BRT) Temp. Heat Index Dew Point Humidity Pressure Visibility Wind Dir Wind Speed Gust Speed Precip Events Conditions
12:00 AM 80.6 °F 86.2 °F 75.2 °F 84% 29.86 in 6.2 mi NE 6.9 mph - N/A   Partly Cloudy
1:00 AM 80.6 °F 86.2 °F 75.2 °F 84% 29.83 in 6.2 mi NNE 6.9 mph - N/A   Partly Cloudy
2:00 AM 80.6 °F 86.2 °F 75.2 °F 84% 29.83 in 6.2 mi North 3.5 mph - N/A   Scattered Clouds
3:00 AM 78.8 °F - 75.2 °F 89% 29.80 in 6.2 mi North 4.6 mph - N/A   Scattered Clouds
4:00 AM 78.8 °F - 75.2 °F 89% 29.80 in 6.2 mi North 4.6 mph - N/A   Scattered Clouds
5:00 AM 77.0 °F - 75.2 °F 94% 29.80 in 6.2 mi NNE 3.5 mph - N/A   Partly Cloudy
6:00 AM 77.0 °F - 75.2 °F 94% 29.83 in 6.2 mi NNE 3.5 mph - N/A   Partly Cloudy
7:00 AM 78.8 °F - 75.2 °F 89% 29.86 in 1.9 mi North 5.8 mph - N/A   Smoke
8:00 AM 82.4 °F 89.5 °F 75.2 °F 79% 29.89 in 1.9 mi NE 8.1 mph - N/A   Smoke
8:33 AM 86.0 °F 95.1 °F 75.2 °F 70% 29.89 in 3.1 mi NE 3.5 mph - N/A   Smoke
9:00 AM 84 °F - 75 °F 67% 29.91 in 6 mi NE 5.8 mph - -   Partly Cloudy
9:00 AM 87.8 °F 97.6 °F 75.2 °F 66% 29.89 in 6.2 mi East 11.5 mph - N/A   Scattered Clouds
10:00 AM 93.2 °F 102.4 °F 73.4 °F 52% 29.92 in 6.2 mi ENE 12.7 mph - N/A   Scattered Clouds
11:00 AM 93.2 °F 102.4 °F 73.4 °F 52% 29.92 in 6.2 mi East 9.2 mph - N/A   Scattered Clouds
12:00 PM 93.2 °F 102.4 °F 73.4 °F 52% 29.89 in 6.2 mi East 11.5 mph - N/A   Scattered Clouds
1:00 PM 96.8 °F 105.1 °F 71.6 °F 44% 29.86 in 6.2 mi East 9.2 mph - N/A   Partly Cloudy
2:00 PM 95.0 °F 104.5 °F 73.4 °F 49% 29.83 in 6.2 mi ESE 9.2 mph - N/A   Partly Cloudy
3:00 PM 89 °F - 74 °F 54% 29.83 in 6 mi Calm Calm - -   Partly Cloudy
3:00 PM 91.4 °F 100.1 °F 73.4 °F 55% 29.80 in 6.2 mi East 8.1 mph - N/A   Partly Cloudy
4:00 PM 91.4 °F 98.4 °F 71.6 °F 52% 29.80 in 6.2 mi East 8.1 mph - N/A   Partly Cloudy
5:00 PM 91.4 °F 102.5 °F 75.2 °F 59% 29.80 in 6.2 mi East 8.1 mph - N/A   Partly Cloudy
6:00 PM 87.8 °F 99.7 °F 77.0 °F 70% 29.80 in 6.2 mi East 9.2 mph - N/A   Partly Cloudy
7:00 PM 86.0 °F 96.9 °F 77.0 °F 74% 29.80 in 6.2 mi East 6.9 mph - N/A   Partly Cloudy
8:00 PM 86.0 °F 95.1 °F 75.2 °F 70% 29.80 in 5.0 mi ENE 9.2 mph - N/A   Partly Cloudy
9:00 PM 84 °F - 76 °F 70% 29.81 in 2 mi NE 3.5 mph - -   Partly Cloudy
9:00 PM 84.2 °F 92.3 °F 75.2 °F 74% 29.83 in - ENE 8.1 mph - N/A   Clear
10:00 PM 82.4 °F 89.5 °F 75.2 °F 79% 29.83 in - NE 6.9 mph - N/A   Clear
11:00 PM 84.2 °F 94.1 °F 77.0 °F 79% 29.86 in 6.2 mi ENE 6.9 mph - N/A   Scattered Clouds